Showing default

COSMOS 2165, 21779

Orbit data source: Space-Track

COSMOS 2165, 21779 is a payload satellite owned by UNKS RF (CIS) in LEO that was launched on Tue, 12 Nov 1991 UTC via a TSIKLON-3 launch vehicle from the Plesetsk Missile And Space Complex (PKMTR). Payload-class satellites include a variety of spacecraft equipped with specific instruments for various scientific and technological missions. These include communications satellites like Starlink; space stations such as the ISS; scientific satellites like the Hubble; Earth observation satellites from companies like Planet Labs, Umbra, and HawkEye 360; GPS; miniature CubeSats for education and research; and military/defense satellites.

Loading next visibility...
Identifier
21779, 1991-077A
Orbit
LEO
Country
Flag of CISCIS
Related business
Manufacturer
NPO PM
Mission
Defense Communications
Bus & Motor
STRELA-3, Unknown motor
Mass
225 kg wet, 225 kg dry
Launch date (UTC)
1991-11-12 (34 years ago)
Launch vehicle
TSIKLON-3
Launch site
Plesetsk Missile And Space Complex (PKMTR)
Object type
Payload
Rocket body
Debris
Shape & HBR
Cyl, 0.8 m
Radar Cross Section
1.257 m², Large (>1 m²)

Expand to show TLE details & history
Last TLE update: 10 hours ago

TLE from 10 hours ago
0 COSMOS 2165
1 21779U 91077A   25259.21250878  .00000040  00000-0  15626-3 0  9993
2 21779  82.6057  47.2104 0009782 322.1145 211.2835 12.64911927562353
Epoch: 2025-09-16T05:06Z
TLE epoch observation values (Epoch: 2025-09-16T05:06:00.758Z)
Latitude
6.53356°
Longitude
154.45377°
Altitude
1,411.37 km
Speed
7.152 km/s
True Right ascension
15h 05m 27s
True Declination
6° 29' 53"
Sunlit
Object was in daylight at epoch
Visualization orbit readout
Latitude
Unknown
Longitude
Unknown
Altitude
Unknown
Speed
Unknown
Apparent Right ascension
Unknown
Apparent Declination
Unknown
Sunlit
N/A
Visualization observer readout
Local Sidereal Time
07:40:13
Azimuth
Unknown
Elevation
Unknown
Doppler factor
Unknown
Orbital elements
Apogee altitude
1,407.66 km
Perigee altitude
1,392.443 km
Semi-major axis
7,778.189 km
Eccentricity
0.00098
Inclination
82.6057°
RAAN
47.2104°
Arg. of periapsis
322.1145°
True anomaly
211.22535°
Mean anomaly
211.2835°
Eccentric anomaly
211.25442°
Mean motion
3.16392 °/min
Orbital period
113.78 mins
BSTAR
0.00015626
Loading maneuver chart data...
Computing Atmospheric mass density...
Loading historical data...
Loading historical data...
Loading historical data...
Loading historical data...
Loading historical data...
Loading historical data...
Loading historical data...

Documentation

Showing up to 5 results
|